Regional Weather Roundup
Issued by NWS

Home | Current Version | Previous Version | Graphics & Text | Print | Product List | Glossary On
Versions: 1 2 3 4 5 6 7 8 9 10 11 12 13 14 15 16 17 18 19 20 21 22 23 24 25 26 27 28 29 30 31 32 33 34 35 36 37 38 39 40 41 42 43 44 45 46 47 48 49 50
000
ASUS43 KMKX 282021
RWRWI

WISCONSIN REGIONAL WEATHER ROUNDUP
NATIONAL WEATHER SERVICE MILWAUKEE/SULLIVAN WI
200 PM CST WED JAN 28 2015

NOTE: "FAIR" INDICATES FEW OR NO CLOUDS BELOW 12,000 FEET WITH NO
SIGNIFICANT WEATHER AND/OR OBSTRUCTIONS TO VISIBILITY.

WIZ001-002-006>008-014>016-023>028-282100-
NORTHWEST WISCONSIN

CITY           SKY/WX    TMP DP  RH WIND       PRES   REMARKS
SUPERIOR ARPT  CLOUDY    32  25  76 S9        29.87F WCI  24
ASHLAND        PTSUNNY   33  23  66 VRB7      29.88F WCI  27
HAYWARD        CLOUDY    29  23  78 S9        29.88F HAZE    WCI  20
SIREN          CLOUDY    31  24  77 S10       29.86F HAZE    WCI  22
CUMBERLAND     CLOUDY    28  23  80 SE17      29.86F FOG     WCI  16
RICE LAKE      CLOUDY    29  24  82 SE16G22   29.89F HAZE    WCI  17
CHETEK         CLOUDY    28  24  82 SE13G21   29.90F FOG     WCI  18
LADYSMITH      CLOUDY    28  24  84 SE14      29.94F FOG     WCI  17
EAU CLAIRE     CLOUDY    29  23  78 SE13      29.90F HAZE    WCI  19
MENOMONIE      CLOUDY    31  26  82 E12       29.90F HAZE    WCI  21
NEW RICHMOND   CLOUDY    30  25  83 SE10G17   29.86F FOG     WCI  21
OSCEOLA        CLOUDY    31  26  84 SE10      29.87F FOG     WCI  22
$$

WIZ003>005-009-010-017-018-282100-
NORTH CENTRAL WISCONSIN

CITY           SKY/WX    TMP DP  RH WIND       PRES   REMARKS
MANITOWISH WTR PTSUNNY   28  22  78 SE10      29.90F WCI  18
ARBOR VITAE    PTSUNNY   32  25  75 SE10G16   29.92F WCI  23
WOODRUFF       PTSUNNY   32  25  75 SE10G16   29.92F WCI  23
RHINELANDER    PTSUNNY   28  20  71 S10       29.95F WCI  19
EAGLE RIVER    PTSUNNY   29  19  67 S9        29.94F WCI  20
LAND O LAKES   PTSUNNY   30  22  72 S12       29.93F WCI  21
PHILLIPS       PTSUNNY   28  22  76 S13       29.90F WCI  18
TOMAHAWK       CLOUDY    30  20  68 SE7       29.94F WCI  23
MEDFORD        CLOUDY    24  21  87 SE13      29.94F FOG     WCI  13
MERRILL        CLOUDY    30  21  69 SE10      29.96F WCI  21
$$

WIZ029-030-035-036-043>047-282100-
CENTRAL WISCONSIN

CITY           SKY/WX    TMP DP  RH WIND       PRES   REMARKS
WAUSAU         CLOUDY    28  21  75 S13       29.96F WCI  17
MOSINEE        MOSUNNY   27  23  86 SE14      29.99F WCI  15
MARSHFIELD     CLOUDY    26  22  84 SE14      29.96F FOG     WCI  14
STEVENS POINT  CLOUDY    27  20  77 SE9       30.00F WCI  17
WAUPACA        PTSUNNY   33  22  65 SE10      30.05F WCI  24
WAUTOMA        CLOUDY    31  22  69 SE9       30.03F WCI  23
WISC RAPIDS    CLOUDY    27  21  78 S12       30.01F WCI  17
CAMP DOUGLAS   CLOUDY    28  28 100 SE13      29.97F WCI  18
$$

WIZ011>013-019>022-031-037>040-048>050-282100-
NORTHEAST WISCONSIN

CITY           SKY/WX    TMP DP  RH WIND       PRES   REMARKS
ANTIGO         PTSUNNY   26  21  80 SE15      29.98F WCI  14
SHAWANO        PTSUNNY   33  21  61 S8        30.06F WCI  26
OCONTO         PTSUNNY   31  24  73 S8        30.09F WCI  24
STURGEON BAY   CLOUDY    30  25  80 S16       30.11F WCI  19
GREEN BAY      CLOUDY    32  22  66 S12       30.08F WCI  23
MANITOWOC      CLOUDY    32  26  78 S20       30.10F WCI  20
APPLETON       CLOUDY    30  19  64 S12       30.07F WCI  21
CLINTONVILLE   PTSUNNY   32  21  64 S12       30.06F WCI  23
OSHKOSH        PTSUNNY   31  21  66 S10       30.06F WCI  22
$$

WIZ032>034-041-042-053>061-282100-
SOUTHWEST WISCONSIN

CITY           SKY/WX    TMP DP  RH WIND       PRES   REMARKS
LA CROSSE      PTSUNNY   34  26  72 SE13      29.92F WCI  25
SPARTA         CLOUDY    31  26  81 SE8       29.96F WCI  23
VIROQUA        PTSUNNY   32  27  80 SE18      29.91F WCI  20
BOSCOBEL       PTSUNNY   35  22  58 SE12G22   29.97F WCI  27
PRAIRIE DU CHI MOSUNNY   34  22  62 SE14G21   29.93F WCI  25
PLATTEVILLE    CLOUDY    32  23  69 E16G22    29.95F WCI  21
$$

WIZ056-057-062-063-064-067-068-282100-
SOUTH CENTRAL WISCONSIN

CITY           SKY/WX    TMP DP  RH WIND       PRES   REMARKS
REEDSBURG      CLOUDY    32  24  73 S9        29.99F WCI  24
BARABOO/DELLS  CLOUDY    31  23  73 S15       30.00F WCI  20
LONE ROCK      PTSUNNY   34  20  56 SE17      30.00F WCI  23
MINERAL POINT  PTSUNNY   32  21  64 SE17      29.96F WCI  21
MADISON        CLOUDY    32  22  66 SE20      30.03F WCI  20
MIDDLETON      PTSUNNY   34  21  59 S15       30.02F WCI  24
WATERTOWN      PTSUNNY   32  20  62 S13       30.05F WCI  22
MONROE         PTSUNNY   32  25  74 SE15G22   30.01F WCI  22
JANESVILLE     SUNNY     34  21  60 S16       30.06F WCI  23
$$

WIZ051-052-058>065-066-070>072-282100-
SOUTHEAST WISCONSIN

CITY           SKY/WX    TMP DP  RH WIND       PRES   REMARKS
MILWAUKEE      PTSUNNY   34  18  52 SE13      30.11F WCI  25
WAUKESHA       SUNNY     32  19  59 SE9       30.09F WCI  24
MILWAUKEE/TIMM SUNNY     34  18  51 SE9       30.11F WCI  26
RACINE         PTSUNNY   33  20  58 S15       30.13F WCI  23
BURLINGTON     PTSUNNY   32  17  54 S9        30.08F WCI  24
KENOSHA        PTSUNNY   35  17  47 S12G18    30.10F WCI  27
FOND DU LAC    PTSUNNY   31  20  63 S15       30.06F WCI  20
SHEBOYGAN      PTSUNNY   32  24  72 S13G22    30.10F WCI  22
WEST BEND      PTSUNNY   34  21  60 SE7       30.07F WCI  28
JUNEAU         PTSUNNY   31  20  63 SE14      30.06F WCI  21
$$

LSZ147-162-282100-
LAKE SUPERIOR

STATION/POSITION TIME  TEMP    WIND        PRES    WAVE
                       AIR SEA DIR/SP/G            HT/PER
                 (UTC) (F)     (DEG/KT/KT) (MB)    (FT/S)
DEVILS ISLAND    2000   30     120/  5/  6 1013.2F
PORT WING        1900   29      10/  6/  8 1013.2F
SAXON HARBOR     1900   35     160/  1/  9 1013.5F
$$

LMZ867-665-643>646-282100-
LAKE MICHIGAN

STATION/POSITION TIME  TEMP    WIND        PRES    WAVE
                       AIR SEA DIR/SP/G            HT/PER
                 (UTC) (F)     (DEG/KT/KT) (MB)    (FT/S)
NORTHPORT PIER   2008   31     160/  9/ 16 1019.0F
SISTER BAY       1843   33     210/ 17/ 20   N/A
KEWAUNEE LAKESHO 1900   31     190/ 11/ 14 1019.4F
SHEBOYGAN LAKESH 2000   31     170/ 21/ 24 1020.3F
PORT WASHINGTON  1920   32     170/ 15/ 20 1020.7F
MILWAUKEE LAKESH 2000   31     150/ 19/ 20   N/A
KENOSHA   LAKESH 2000   31     160/ 20/ 22 1019.6F
$$

TC  - TEMPERATURE IN CELSIUS
VSB - VISIBILITY IN STATUTE MILES
WCI - WIND CHILL INDEX
HX  - HEAT INDEX




USA.gov is the U.S. government's official web portal to all federal, state and local government web resources and services.